Location: Jaboat�o
(8.1170°S, 35.0170°W)
Time: 19:42:54
(UTC-03:00)

BlueWalker 3 - Pass Details

Date: 20 June 2024
Orbit: 480 x 491 km, 53.2° (Epoch: 21 July)

Event Time Altitude Azimuth Distance (km) Brightness Sun altitude
Rises 17:37:26 0° 244° (WSW) 2,560 6.2 -6.8°
Reaches altitude 10° 17:40:26 10° 269° (W) 1,670 5.8 -7.4°
Maximum altitude 17:42:30 14° 302° (WNW) 1,422 5.7 -7.9°
Drops below altitude 10° 17:44:34 10° 336° (NNW) 1,658 5.3 -8.4°
Sets 17:47:32 0° 2° (N) 2,528 5.8 -9.1°
